Home   Weather   42°08'N, 71°03'W   Past weeks
Flag for USA

Past Weather in 42°08'N, 71°03'W, USA — Yesterday and Last 2 Weeks

Now
56 °F

Mostly cloudy.


Feels Like: 53 °F
Forecast: 67 / 54 °F
Wind: 10 mph from Southwest

Location: Logan International Airport

Current Time: May 23, 2019 at 7:12:03 am

Latest Report: May 23, 2019 at 5:54 am


Visibility: 10 mi

Pressure: 30.24 "Hg

Humidity: 58%

Dew Point: 41 °F

Location of 42°08'N, 71°03'WLocation

Past Weather in 42°08'N, 71°03'W — Graph

°F

42°08'N, 71°03'W Temperature Yesterday

Maximum temperature yesterday: 68 °F (at 12:54 pm)
Minimum temperature yesterday: 55 °F (at 11:54 pm)
Average temperature yesterday: 60 °F

High & Low Weather Summary for the Past Weeks

 TemperatureHumidityPressure
High86 °F (May 20, 2:54 pm)93% (May 17, 11:54 am)30.40 "Hg (May 17, 11:54 am)
Low43 °F (May 14, 1:54 am)23% (May 11, 4:54 pm)29.62 "Hg (May 20, 5:54 pm)
Average57 °F64%29.95 "Hg
* Reported May 8 5:54 am — May 23 5:54 am, 42°08'N, 71°03'W. Weather by CustomWeather, © 2019

Note: Actual official high and low records may vary slightly from our data, if they occured in-between our weather recording intervals... More about our weather records

Advertising

42°08'N, 71°03'W Weather History for the Previous 24 Hours

Scroll right to see more
 ConditionsComfort  
Time TempWeatherWind HumidityBarometerVisibility
5:54 am
Thu, May 23
56 °FMostly cloudy.10 mph58%30.24 "Hg10 mi
4:54 am56 °FMostly cloudy.12 mph58%30.23 "Hg10 mi
3:54 am55 °FOvercast.10 mph62%30.22 "Hg10 mi
2:54 am55 °FOvercast.8 mph64%30.26 "Hg10 mi
1:54 am53 °FMostly cloudy.9 mph74%30.26 "Hg10 mi
12:54 am54 °FPartly cloudy.13 mph62%30.26 "Hg10 mi
11:54 pm
Wed, May 22
55 °FPartly cloudy.13 mph55%30.25 "Hg10 mi
10:54 pm56 °FPassing clouds.12 mph55%30.25 "Hg10 mi
9:54 pm57 °FPassing clouds.12 mph55%30.25 "Hg10 mi
8:54 pm58 °FPartly cloudy.9 mph54%30.25 "Hg10 mi
7:54 pm59 °FBroken clouds.9 mph51%30.24 "Hg10 mi
6:54 pm60 °FBroken clouds.10 mph46%30.23 "Hg10 mi
5:54 pm60 °FBroken clouds.12 mph46%30.22 "Hg10 mi
4:54 pm62 °FBroken clouds.15 mph39%30.20 "Hg10 mi
3:54 pm60 °FBroken clouds.15 mph46%30.20 "Hg10 mi
2:54 pm61 °FBroken clouds.17 mph50%30.19 "Hg10 mi
1:54 pm63 °FPartly sunny.17 mph47%30.17 "Hg10 mi
12:54 pm68 °FPartly sunny.16 mph27%30.17 "Hg10 mi
11:54 am67 °FPartly sunny.12 mph31%30.18 "Hg10 mi
10:54 am64 °FPartly sunny.8 mph32%30.17 "Hg10 mi
9:54 am62 °FScattered clouds.12 mph35%30.17 "Hg10 mi
8:54 am61 °FScattered clouds.14 mph35%30.15 "Hg10 mi
7:54 am59 °FPassing clouds.17 mph41%30.13 "Hg10 mi
Weather by CustomWeather, © 2019

See weather overview